STARLINK-1017, 44723

Orbit data source: Space-Track

STARLINK-1017, 44723 is a payload satellite owned by SpaceX/Seattle (US) in LEO that was launched on Mon, 11 Nov 2019 UTC via an FALCON 9 launch vehicle from the Air Force Eastern Test Range (AFETR). Payload-class satellites include a variety of spacecraft equipped with specific instruments for various scientific and technological missions. These include communications satellites like Starlink; space stations such as the ISS; scientific satellites like the Hubble; Earth observation satellites from companies like Planet Labs, Umbra, and HawkEye 360; GPS; miniature CubeSats for education and research; and military/defense satellites.

Loading next visibility...
Identifier
44723, 2019-074L
Orbit
LEO
Country
Flag of USUS
Related business
Manufacturer
SpaceX/Seattle
Mission
Partially operational Commercial Communications
Bus & Motor
STARLINK, Unknown motor
Mass
260 kg wet, ~248 kg dry
Launch date (UTC)
2019-11-11 (7 years ago)
Launch vehicle
FALCON 9
Launch site
Air Force Eastern Test Range (AFETR)
Object type
Payload
Rocket body
Debris
Shape & HBR
Box + 1 Pan, 10.1 m
Radar Cross Section
13.562 m², Large (>1 m²)

Expand to show TLE details & history
Last TLE update: 12 hours ago

TLE from 12 hours ago
0 STARLINK-1017
1 44723U 19074L   26168.00952019  .00038049  00000-0  12134-2 0  9997
2 44723  53.0465  70.2787 0004538  68.7961 291.3524 15.32169060364151
Epoch: 2026-06-17T00:13Z
TLE epoch observation values (Epoch: 2026-06-17T00:13:42.544Z)
Latitude
0.00001°
Longitude
161.57809°
Altitude
469.1 km
Speed
7.633 km/s
True Right ascension
04h 41m 06s
True Declination
0° 00' 00"
Sunlit
Object was in daylight at epoch
Visualization orbit readout
Latitude
Unknown
Longitude
Unknown
Altitude
Unknown
Speed
Unknown
Apparent Right ascension
Unknown
Apparent Declination
Unknown
Sunlit
N/A
Visualization observer readout
Local Sidereal Time
22:45:23
Azimuth
Unknown
Elevation
Unknown
Doppler factor
Unknown
Orbital elements
Apogee altitude
472.725 km
Perigee altitude
466.51 km
Semi-major axis
6,847.754 km
Eccentricity
0.00045
Inclination
53.0465°
RAAN
70.2787°
Arg. of periapsis
68.7961°
True anomaly
291.30396°
Mean anomaly
291.3524°
Eccentric anomaly
291.32818°
Mean motion
3.8302 °/min
Orbital period
93.99 mins
BSTAR
0.0012134
Loading maneuver chart data...
Computing Atmospheric mass density...

Documentation

Showing up to 5 results
|